STARLINK-34194 (64179 NORAD) Tracking and Keplerian Element Data

This shows tracking and keplerian element data for the satellite.

Feedback or suggestion? Click here.




ElementValue
Catalog64179
NameSTARLINK-34194
Epoch Orbit3287
Epoch Day354.0246597
Epoch Year2025
RAAN100.7735
Inclination53.1606
Eccentricity0.0001596
Argument of Perigee79.2267
Mean Anonmoly280.8914
Mean Motion15.3021816
Decay Rate0.00021134
L11 64179U 25113K 25354.02465970 .00021134 00000+0 72325-3 0 9993
L22 64179 53.1606 100.7735 0001596 79.2267 280.8914 15.30218160 32876



Live tracking and technical data element details for STARLINK-34194 (NORAD 64179). STARLINK-34194 can be tracked NOW for your location showing map with azimuth and elevation plus other details from your city location.







IsCatalogInMostPopularTable: catalog: 64179, numindb: 10
Update: records affected: 1



GetName: 64179 STARLINK-34194

Hit Count: updated at: Mon, 20 Apr 2026 10:45:25 GMT